Miscellaneous Local Product
Issued by NWS North Platte, NE

Home | Current Version | Previous Version | Text Only | Print | Product List | Glossary On
Versions: 1 2 3 4 5 6 7 8 9 10 11 12 13 14 15 16 17 18 19 20 21 22 23 24 25 26 27 28 29 30 31 32 33 34 35 36 37 38 39 40 41 42 43 44 45 46 47 48 49 50
000
AXUS43 KLBF 032310
MISLBF


WESTERN AND NORTH CENTRAL NEBRASKA HOURLY WEATHER ROUNDUP
NATIONAL WEATHER SERVICE NORTH PLATTE NE
600 PM CDT THU SEP 03 2015

NOTE: "FAIR" INDICATES FEW OR NO CLOUDS BELOW 12,000 FEET WITH NO
SIGNIFICANT WEATHER AND/OR OBSTRUCTIONS TO VISIBILITY.

NOTE: STATIONS NOT REPORTING VARIABLES SUCH AS SKY/WEATHER OR
PRESSURE ARE PROVIDED BY THE NEBRASKA DEPARTMENT OF
ROADS...RAWS...AND APRS NETWORKS...AND ARE NOT UNDER
NATIONAL WEATHER SERVICE QUALITY CONTROL.

...OBSERVATIONS IN AND NEAR THE EASTERN PANHANDLE OF NEBRASKA...

CITY           SKY/WX    TMP DP  RH WIND       PRES   REMARKS
PINE RIDGE     CLOUDY    91  47  21 S10       29.77S
CHADRON        PTSUNNY   94  44  17 S20       29.75S HX  90
ALLIANCE       CLOUDY    84  50  30 SW7       29.84S
SIDNEY         PTSUNNY   87  47  24 NW16      29.88F
CRESCENT LAKE    N/A     86  53  31 CALM        N/A
BIG SPRINGS      N/A     89  58  35 N3          N/A
$$

...OBSERVATIONS IN NORTH CENTRAL NEBRASKA...

CITY           SKY/WX    TMP DP  RH WIND       PRES   REMARKS
VALENTINE      CLOUDY    95  53  24 SE13      29.74S HX  92
THEDFORD       MOSUNNY   93  62  35 S9        29.78R HX  93
AINSWORTH      CLOUDY    90  61  37 S8        29.76S
O`NEILL        PTSUNNY   87  72  60 SE10      29.76F HX  93
ORD            MOSUNNY   93  62  35 S16       29.75S HX  93
BROKEN BOW     SUNNY     92  61  35 S14G20    29.77F HX  92
SPRINGVIEW       N/A     92  69  47 CALM        N/A  HX  97
SARGENT          N/A     92  65  40 CALM        N/A  HX  94
CHAMBERS         N/A     91  66  43 S5G13       N/A  HX  93
EWING            N/A     85  72  65 SE6         N/A  HX  91
$$

...OBSERVATIONS IN SOUTHWEST NEBRASKA AND FAR NORTHEAST COLORADO...

CITY           SKY/WX    TMP DP  RH WIND       PRES   REMARKS
WRAY           CLOUDY    95  37  13 CALM      29.79F HX  90
HOLYOKE        FAIR      88  52  29 SE3       29.81F
IMPERIAL       CLOUDY    97  47  18 S6        29.77F HX  93
OGALLALA       PTSUNNY   94  52  23 SE9       29.77S HX  91
NORTH PLATTE   PTSUNNY   89  62  40 SE8       29.75F
MCCOOK         CLOUDY    95  54  25 S13       29.73S HX  93
LEXINGTON      PTSUNNY   93  60  32 SE8       29.75F HX  93
PAXTON           N/A     88  67  50 SE5         N/A  HX  91
BRADY            N/A     90  66  45 CALM        N/A  HX  92
CALLAWAY         N/A     86  72  62 SE9         N/A  HX  92
$$

...OBSERVATIONS IN CENTRAL LINCOLN COUNTY AREA...

CITY           SKY/WX    TMP DP  RH WIND       PRES   REMARKS
N.P. AIRPORT   PTSUNNY   89  62  40 SE8       29.75F
N.P. DOWNTOWN    N/A     93  64  37 SE3         N/A  HX  94
N.P. SOUTHEAST   N/A     93  62  35 SE3         N/A  HX  93
N.P. HILLCREST   N/A     91  62  37 SE8         N/A  HX  91
$$

...SOME OBSERVATIONS FROM AROUND THE REGION...

CITY           SKY/WX    TMP DP  RH WIND       PRES   REMARKS
DENVER         CLOUDY    75  49  39 NW21      29.99S
LARAMIE        LGT RAIN  57  32  38 SW15      30.17R
CHEYENNE       CLOUDY    71  46  40 W17G24    30.03F
SCOTTSBLUFF    CLOUDY    83  48  29 S14       29.86S
RAPID CITY     PTSUNNY   93  46  19 S12G21    29.72F
PIERRE         PTSUNNY   96  47  18 SE18      29.65F HX  92
WINNER         FAIR      90  65  43 SE10      29.71F HX  92
SIOUX FALLS    MOSUNNY   85  71  63 S15       29.78S HX  90
OMAHA          MOSUNNY   92  71  50 S18G26    29.79F HX  98
GRAND ISLAND   SUNNY     93  68  43 SE13      29.77F HX  97
KANSAS CITY    MOSUNNY   89  67  47 S13       29.88F HX  92
WICHITA        PTSUNNY   91  62  37 S16G28    29.84S HX  91
HAYS           PTSUNNY   97  57  26 S30G36    29.77S HX  95
LIBERAL        PTSUNNY   99  54  22 S18       29.82F HX  96
GOODLAND       CLOUDY    92  48  22 S15       29.80F
$$



USA.gov is the U.S. government's official web portal to all federal, state and local government web resources and services.